| time (UTC) | temp C | wind direction | speed KPH | gust KPH | rain 1hr cm | rain 24hr cm | rain mn cm | humidity % | barometer mb |
| 20260505062556 | 21 | 360 | 4.8 | 0.0 | 0.00 | 0.00 | 0.00 | 52 | 1014.6 |
| 20260505062038 | 21 | 358 | 3.2 | 0.0 | 0.00 | 0.00 | 0.00 | 52 | 1014.8 |
| 20260505061526 | 21 | 6 | 4.8 | 0.0 | 0.00 | 0.00 | 0.00 | 52 | 1014.8 |
| 20260505061033 | 20 | 31 | 6.4 | 0.0 | 0.00 | 0.00 | 0.00 | 54 | 1014.8 |
| 20260505060537 | 20 | 323 | 6.4 | 0.0 | 0.00 | 0.00 | 0.00 | 52 | 1014.9 |
| 20260505060045 | 20 | 6 | 8.0 | 0.0 | 0.00 | 0.00 | 0.00 | 54 | 1014.9 |
| 20260505055532 | 20 | 302 | 8.0 | 0.0 | 0.00 | 0.00 | 0.00 | 53 | 1014.9 |
| 20260505055037 | 20 | 311 | 8.0 | 0.0 | 0.00 | 0.00 | 0.00 | 52 | 1015.3 |
| 20260505054540 | 20 | 337 | 8.0 | 0.0 | 0.00 | 0.00 | 0.00 | 53 | 1015.3 |
| 20260505054048 | 20 | 315 | 6.4 | 0.0 | 0.00 | 0.00 | 0.00 | 51 | 1015.3 |
| 20260505053533 | 20 | 340 | 6.4 | 0.0 | 0.00 | 0.00 | 0.00 | 51 | 1015.2 |
| 20260505053040 | 20 | 332 | 6.4 | 0.0 | 0.00 | 0.00 | 0.00 | 53 | 1015.2 |
| 20260505052547 | 20 | 305 | 8.0 | 0.0 | 0.00 | 0.00 | 0.00 | 51 | 1015.2 |
| 20260505052030 | 20 | 360 | 8.0 | 0.0 | 0.00 | 0.00 | 0.00 | 52 | 1015.4 |
| 20260505051538 | 20 | 356 | 8.0 | 0.0 | 0.00 | 0.00 | 0.00 | 51 | 1015.4 |
| 20260505051042 | 20 | 358 | 9.7 | 0.0 | 0.00 | 0.00 | 0.00 | 51 | 1015.4 |
| 20260505050527 | 20 | 318 | 9.7 | 0.0 | 0.00 | 0.00 | 0.00 | 52 | 1015.4 |
| 20260505041528 | 20 | 328 | 12.9 | 0.0 | 0.00 | 0.00 | 0.00 | 52 | 1015.5 |
| 20260505041035 | 20 | 299 | 11.3 | 0.0 | 0.00 | 0.00 | 0.00 | 51 | 1015.5 |
| 20260505040550 | 20 | 319 | 11.3 | 0.0 | 0.00 | 0.00 | 0.00 | 52 | 1015.5 |
| 20260505040027 | 20 | 308 | 9.7 | 0.0 | 0.00 | 0.00 | 0.00 | 50 | 1015.5 |
| 20260505035535 | 20 | 288 | 8.0 | 0.0 | 0.00 | 0.00 | 0.00 | 51 | 1015.5 |
| 20260505035035 | 20 | 306 | 9.7 | 0.0 | 0.00 | 0.00 | 0.00 | 51 | 1015.7 |
| 20260505034550 | 19 | 333 | 9.7 | 0.0 | 0.00 | 0.00 | 0.00 | 51 | 1015.7 |
| 20260505034032 | 20 | 340 | 9.7 | 0.0 | 0.00 | 0.00 | 0.00 | 50 | 1015.7 |
| 20260505033537 | 20 | 358 | 9.7 | 0.0 | 0.00 | 0.00 | 0.00 | 51 | 1015.9 |
| 20260505033044 | 20 | 332 | 9.7 | 0.0 | 0.00 | 0.00 | 0.00 | 50 | 1015.9 |
| 20260505032530 | 20 | 314 | 11.3 | 0.0 | 0.00 | 0.00 | 0.00 | 50 | 1015.9 |
| 20260505032036 | 20 | 304 | 9.7 | 0.0 | 0.00 | 0.00 | 0.00 | 49 | 1015.9 |
| 20260505031603 | 20 | 297 | 9.7 | 0.0 | 0.00 | 0.00 | 0.00 | 49 | 1015.9 |
| 20260505031044 | 20 | 278 | 9.7 | 0.0 | 0.00 | 0.00 | 0.00 | 49 | 1015.9 |
| 20260505030529 | 20 | 293 | 9.7 | 0.0 | 0.00 | 0.00 | 0.00 | 48 | 1016.0 |
| 20260505030034 | 20 | 342 | 8.0 | 0.0 | 0.00 | 0.00 | 0.00 | 50 | 1016.0 |
| 20260505025540 | 21 | 319 | 6.4 | 0.0 | 0.00 | 0.00 | 0.00 | 48 | 1016.0 |
| 20260505025044 | 21 | 354 | 4.8 | 0.0 | 0.00 | 0.00 | 0.00 | 46 | 1016.3 |
| 20260505024527 | 21 | 116 | 4.8 | 0.0 | 0.00 | 0.00 | 0.00 | 43 | 1016.3 |
| 20260505024031 | 21 | 141 | 6.4 | 0.0 | 0.00 | 0.00 | 0.00 | 43 | 1016.3 |
| 20260505023532 | 21 | 76 | 6.4 | 0.0 | 0.00 | 0.00 | 0.00 | 44 | 1016.3 |
| 20260505023047 | 21 | 142 | 6.4 | 0.0 | 0.00 | 0.00 | 0.00 | 44 | 1016.3 |
| 20260505022555 | 21 | 110 | 6.4 | 0.0 | 0.00 | 0.00 | 0.00 | 44 | 1016.3 |
| 20260505022033 | 21 | 247 | 6.4 | 0.0 | 0.00 | 0.00 | 0.00 | 43 | 1016.4 |
| 20260505021601 | 21 | 160 | 3.2 | 0.0 | 0.00 | 0.00 | 0.00 | 44 | 1016.4 |
| 20260505021046 | 21 | 61 | 4.8 | 0.0 | 0.00 | 0.00 | 0.00 | 43 | 1016.4 |
| 20260505020551 | 21 | 150 | 4.8 | 0.0 | 0.00 | 0.00 | 0.00 | 42 | 1016.5 |
| 20260505020036 | 20 | 191 | 3.2 | 0.0 | 0.00 | 0.00 | 0.00 | 44 | 1016.5 |
| 20260505015535 | 20 | 130 | 4.8 | 0.0 | 0.00 | 0.00 | 0.00 | 43 | 1016.5 |
| 20260505015040 | 20 | 90 | 6.4 | 0.0 | 0.00 | 0.00 | 0.00 | 43 | 1016.6 |
| 20260505014529 | 20 | 107 | 6.4 | 0.0 | 0.00 | 0.00 | 0.00 | 44 | 1016.6 |
| 20260505014037 | 20 | 150 | 6.4 | 0.0 | 0.00 | 0.00 | 0.00 | 43 | 1016.6 |
| 20260505013537 | 20 | 181 | 6.4 | 0.0 | 0.00 | 0.00 | 0.00 | 44 | 1016.7 |
| 20260505013051 | 20 | 83 | 8.0 | 0.0 | 0.00 | 0.00 | 0.00 | 44 | 1016.7 |
| 20260505012529 | 20 | 115 | 6.4 | 0.0 | 0.00 | 0.00 | 0.00 | 43 | 1016.7 |
| 20260505012029 | 20 | 162 | 6.4 | 0.0 | 0.00 | 0.00 | 0.00 | 45 | 1016.9 |
| 20260505011531 | 20 | 170 | 8.0 | 0.0 | 0.00 | 0.00 | 0.00 | 43 | 1016.9 |
| 20260505011045 | 20 | 173 | 6.4 | 0.0 | 0.00 | 0.00 | 0.00 | 43 | 1016.9 |
| 20260505010546 | 20 | 76 | 4.8 | 0.0 | 0.00 | 0.00 | 0.00 | 44 | 1016.7 |
| 20260505010033 | 20 | 112 | 4.8 | 0.0 | 0.00 | 0.00 | 0.00 | 43 | 1016.7 |
| 20260505005537 | 20 | 360 | 3.2 | 0.0 | 0.00 | 0.00 | 0.00 | 45 | 1016.7 |
| 20260505005038 | 19 | 101 | 3.2 | 0.0 | 0.00 | 0.00 | 0.00 | 44 | 1016.5 |
| 20260505004604 | 19 | 148 | 4.8 | 0.0 | 0.00 | 0.00 | 0.00 | 43 | 1016.5 |
| 20260505004104 | 19 | 172 | 6.4 | 0.0 | 0.00 | 0.00 | 0.00 | 44 | 1016.5 |
| 20260505003544 | 19 | 14 | 4.8 | 0.0 | 0.00 | 0.00 | 0.00 | 50 | 1016.6 |
| 20260505003028 | 18 | 142 | 3.2 | 0.0 | 0.00 | 0.00 | 0.00 | 46 | 1016.6 |
| 20260505002534 | 19 | 130 | 1.6 | 0.0 | 0.00 | 0.00 | 0.00 | 46 | 1016.6 |
| 20260505002057 | 19 | 60 | 1.6 | 0.0 | 0.00 | 0.00 | 0.00 | 47 | 1016.5 |
| 20260505001601 | 19 | 3 | 1.6 | 0.0 | 0.00 | 0.00 | 0.00 | 48 | 1016.5 |
| 20260505001046 | 19 | 60 | 0.0 | 0.0 | 0.00 | 0.00 | 0.00 | 47 | 1016.5 |
| 20260505000544 | 18 | 23 | 0.0 | 0.0 | 0.00 | 0.00 | 0.00 | 47 | 1016.5 |
| 20260505000027 | 18 | 23 | 0.0 | 0.0 | 0.00 | 0.00 | 0.00 | 48 | 1016.5 |
| 20260504235530 | 18 | 23 | 0.0 | 0.0 | 0.00 | 0.00 | 0.00 | 50 | 1016.5 |
| 20260504235032 | 17 | 23 | 0.0 | 0.0 | 0.00 | 0.00 | 0.00 | 51 | 1016.5 |
| 20260504234544 | 17 | 23 | 0.0 | 0.0 | 0.00 | 0.00 | 0.00 | 51 | 1016.5 |
| 20260504234050 | 17 | 129 | 0.0 | 0.0 | 0.00 | 0.00 | 0.00 | 55 | 1016.5 |
| 20260504233552 | 17 | 129 | 0.0 | 0.0 | 0.00 | 0.00 | 0.00 | 60 | 1016.6 |
| 20260504233033 | 17 | 129 | 0.0 | 0.0 | 0.00 | 0.00 | 0.00 | 60 | 1016.5 |
| 20260504232535 | 17 | 129 | 0.0 | 0.0 | 0.00 | 0.00 | 0.00 | 60 | 1016.5 |
| 20260504232036 | 16 | 129 | 0.0 | 0.0 | 0.00 | 0.00 | 0.00 | 63 | 1016.6 |
| 20260504231539 | 16 | 129 | 0.0 | 0.0 | 0.00 | 0.00 | 0.00 | 64 | 1016.6 |
| 20260504231043 | 16 | 129 | 0.0 | 0.0 | 0.00 | 0.00 | 0.00 | 68 | 1016.6 |
| 20260504230545 | 15 | 129 | 0.0 | 0.0 | 0.00 | 0.00 | 0.00 | 67 | 1016.6 |
| 20260504230049 | 15 | 129 | 0.0 | 0.0 | 0.00 | 0.00 | 0.00 | 69 | 1016.6 |
| 20260504225529 | 15 | 129 | 0.0 | 0.0 | 0.00 | 0.00 | 0.00 | 71 | 1016.6 |
| 20260504225029 | 14 | 131 | 0.0 | 0.0 | 0.00 | 0.00 | 0.00 | 73 | 1016.5 |
| 20260504224534 | 14 | 131 | 1.6 | 0.0 | 0.00 | 0.00 | 0.00 | 75 | 1016.5 |
| 20260504224038 | 13 | 131 | 3.2 | 0.0 | 0.00 | 0.00 | 0.00 | 77 | 1016.5 |
| 20260504223538 | 13 | 131 | 3.2 | 0.0 | 0.00 | 0.00 | 0.00 | 78 | 1016.4 |
| 20260504223050 | 13 | 127 | 3.2 | 0.0 | 0.00 | 0.00 | 0.00 | 80 | 1016.4 |
| 20260504222554 | 13 | 128 | 3.2 | 0.0 | 0.00 | 0.00 | 0.00 | 81 | 1016.4 |
| 20260504222051 | 12 | 136 | 3.2 | 0.0 | 0.00 | 0.00 | 0.00 | 81 | 1016.5 |
| 20260504221556 | 12 | 136 | 4.8 | 0.0 | 0.00 | 0.00 | 0.00 | 82 | 1016.5 |
| 20260504221040 | 12 | 140 | 4.8 | 0.0 | 0.00 | 0.00 | 0.00 | 83 | 1016.5 |
| 20260504220541 | 12 | 139 | 3.2 | 0.0 | 0.00 | 0.00 | 0.00 | 84 | 1016.1 |
| 20260504220027 | 11 | 131 | 3.2 | 0.0 | 0.00 | 0.00 | 0.00 | 86 | 1016.1 |
| 20260504215554 | 11 | 187 | 1.6 | 0.0 | 0.00 | 0.00 | 0.00 | 88 | 1016.1 |
| 20260504215033 | 11 | 188 | 0.0 | 0.0 | 0.00 | 0.00 | 0.00 | 88 | 1016.1 |
| 20260504214534 | 11 | 188 | 1.6 | 0.0 | 0.00 | 0.00 | 0.00 | 90 | 1016.1 |
| 20260504214038 | 11 | 188 | 1.6 | 0.0 | 0.00 | 0.00 | 0.00 | 90 | 1016.1 |
| 20260504213538 | 10 | 188 | 1.6 | 0.0 | 0.00 | 0.00 | 0.00 | 90 | 1015.9 |
| 20260504213042 | 10 | 188 | 1.6 | 0.0 | 0.00 | 0.00 | 0.00 | 91 | 1015.9 |
| 20260504212529 | 10 | 188 | 1.6 | 0.0 | 0.00 | 0.00 | 0.00 | 92 | 1015.9 |
| 20260504212029 | 10 | 188 | 3.2 | 0.0 | 0.00 | 0.00 | 0.00 | 92 | 1015.6 |
| 20260504211532 | 10 | 163 | 4.8 | 0.0 | 0.00 | 0.00 | 0.00 | 92 | 1015.6 |
| 20260504211031 | 10 | 193 | 3.2 | 0.0 | 0.00 | 0.00 | 0.00 | 92 | 1015.6 |
| 20260504210534 | 10 | 141 | 1.6 | 0.0 | 0.00 | 0.00 | 0.00 | 93 | 1015.8 |
| 20260504210048 | 9 | 180 | 1.6 | 0.0 | 0.00 | 0.00 | 0.00 | 93 | 1015.8 |
| 20260504205552 | 9 | 180 | 1.6 | 0.0 | 0.00 | 0.00 | 0.00 | 93 | 1015.8 |
| 20260504205035 | 9 | 180 | 1.6 | 0.0 | 0.00 | 0.00 | 0.00 | 93 | 1015.8 |
| 20260504204540 | 9 | 181 | 1.6 | 0.0 | 0.00 | 0.00 | 0.00 | 93 | 1015.8 |
| 20260504204106 | 9 | 180 | 0.0 | 0.0 | 0.00 | 0.00 | 0.00 | 93 | 1015.8 |
| 20260504203541 | 9 | 180 | 0.0 | 0.0 | 0.00 | 0.00 | 0.00 | 93 | 1015.7 |
| 20260504203047 | 9 | 180 | 0.0 | 0.0 | 0.00 | 0.00 | 0.00 | 93 | 1015.7 |
| 20260504202533 | 9 | 180 | 0.0 | 0.0 | 0.00 | 0.00 | 0.00 | 93 | 1015.7 |
| 20260504202035 | 9 | 181 | 0.0 | 0.0 | 0.00 | 0.00 | 0.00 | 92 | 1015.5 |
| 20260504201543 | 10 | 180 | 0.0 | 0.0 | 0.00 | 0.00 | 0.00 | 92 | 1015.5 |
| 20260504201050 | 10 | 180 | 0.0 | 0.0 | 0.00 | 0.00 | 0.00 | 92 | 1015.5 |
| 20260504200531 | 10 | 180 | 0.0 | 0.0 | 0.00 | 0.00 | 0.00 | 92 | 1015.7 |
| 20260504200038 | 10 | 180 | 0.0 | 0.0 | 0.00 | 0.00 | 0.00 | 92 | 1015.7 |
| 20260504195540 | 10 | 180 | 0.0 | 0.0 | 0.00 | 0.00 | 0.00 | 92 | 1015.7 |
| 20260504195044 | 10 | 181 | 1.6 | 0.0 | 0.00 | 0.00 | 0.00 | 92 | 1015.5 |
| 20260504194530 | 10 | 180 | 1.6 | 0.0 | 0.00 | 0.00 | 0.00 | 92 | 1015.5 |
| 20260504194058 | 10 | 180 | 3.2 | 0.0 | 0.00 | 0.00 | 0.00 | 92 | 1015.5 |
| 20260504193540 | 10 | 181 | 3.2 | 0.0 | 0.00 | 0.00 | 0.00 | 92 | 1015.2 |
| 20260504193026 | 10 | 207 | 3.2 | 0.0 | 0.00 | 0.00 | 0.00 | 92 | 1015.2 |
| 20260504192533 | 10 | 207 | 1.6 | 0.0 | 0.00 | 0.00 | 0.00 | 92 | 1015.2 |
| 20260504192032 | 10 | 207 | 1.6 | 0.0 | 0.00 | 0.00 | 0.00 | 92 | 1015.2 |
| 20260504191538 | 10 | 207 | 1.6 | 0.0 | 0.00 | 0.00 | 0.00 | 91 | 1015.2 |
| 20260504191043 | 10 | 207 | 1.6 | 0.0 | 0.00 | 0.00 | 0.00 | 91 | 1015.2 |
| 20260504190548 | 10 | 207 | 1.6 | 0.0 | 0.00 | 0.00 | 0.00 | 91 | 1015.5 |
| 20260504190034 | 10 | 207 | 1.6 | 0.0 | 0.00 | 0.00 | 0.00 | 91 | 1015.5 |
| 20260504185541 | 10 | 207 | 1.6 | 0.0 | 0.00 | 0.00 | 0.00 | 91 | 1015.5 |
| 20260504185052 | 10 | 207 | 1.6 | 0.0 | 0.00 | 0.00 | 0.00 | 92 | 1015.2 |
| 20260504184530 | 10 | 207 | 1.6 | 0.0 | 0.00 | 0.00 | 0.00 | 92 | 1015.2 |
| 20260504184033 | 10 | 146 | 3.2 | 0.0 | 0.00 | 0.00 | 0.00 | 91 | 1015.2 |
| 20260504183535 | 10 | 146 | 4.8 | 0.0 | 0.00 | 0.00 | 0.00 | 91 | 1015.2 |
| 20260504183051 | 10 | 146 | 4.8 | 0.0 | 0.00 | 0.00 | 0.00 | 91 | 1015.2 |
| 20260504182553 | 10 | 134 | 3.2 | 0.0 | 0.00 | 0.00 | 0.00 | 90 | 1015.2 |
| 20260504182026 | 10 | 162 | 3.2 | 0.0 | 0.00 | 0.00 | 0.00 | 91 | 1014.9 |
| 20260504181542 | 10 | 125 | 3.2 | 0.0 | 0.00 | 0.00 | 0.00 | 91 | 1014.9 |
| 20260504181047 | 10 | 201 | 3.2 | 0.0 | 0.00 | 0.00 | 0.00 | 91 | 1014.9 |
| 20260504180546 | 10 | 201 | 6.4 | 0.0 | 0.00 | 0.00 | 0.00 | 91 | 1014.9 |
| 20260504180033 | 10 | 227 | 6.4 | 0.0 | 0.00 | 0.00 | 0.00 | 90 | 1014.9 |
| 20260504175538 | 11 | 236 | 3.2 | 0.0 | 0.00 | 0.00 | 0.00 | 90 | 1014.9 |
| 20260504175058 | 11 | 222 | 0.0 | 0.0 | 0.00 | 0.00 | 0.00 | 89 | 1015.0 |
| 20260504174544 | 11 | 223 | 0.0 | 0.0 | 0.00 | 0.00 | 0.00 | 89 | 1015.0 |
| 20260504174029 | 11 | 223 | 0.0 | 0.0 | 0.00 | 0.00 | 0.00 | 88 | 1015.0 |
| 20260504173534 | 11 | 222 | 0.0 | 0.0 | 0.00 | 0.00 | 0.00 | 88 | 1015.0 |
| 20260504173036 | 11 | 222 | 1.6 | 0.0 | 0.00 | 0.00 | 0.00 | 88 | 1015.0 |
| 20260504172543 | 11 | 222 | 1.6 | 0.0 | 0.00 | 0.00 | 0.00 | 88 | 1015.0 |
| 20260504172026 | 11 | 222 | 0.0 | 0.0 | 0.00 | 0.00 | 0.00 | 88 | 1015.0 |
| 20260504171532 | 11 | 222 | 1.6 | 0.0 | 0.00 | 0.00 | 0.00 | 87 | 1015.0 |
| 20260504171037 | 11 | 222 | 1.6 | 0.0 | 0.00 | 0.00 | 0.00 | 86 | 1015.0 |
| 20260504170540 | 11 | 222 | 1.6 | 0.0 | 0.00 | 0.00 | 0.00 | 85 | 1014.9 |
| 20260504151052 | 13 | 264 | 0.0 | 0.0 | 0.00 | 0.00 | 0.00 | 77 | 1015.0 |
| 20260504150554 | 13 | 360 | 0.0 | 0.0 | 0.00 | 0.00 | 0.00 | 75 | 1014.9 |
| 20260504141034 | 15 | 360 | 0.0 | 0.0 | 0.00 | 0.00 | 0.00 | 62 | 1014.8 |
| 20260504140538 | 15 | 360 | 0.0 | 0.0 | 0.00 | 0.00 | 0.00 | 62 | 1014.4 |
| 20260504130551 | 15 | 1 | 1.6 | 0.0 | 0.00 | 0.00 | 0.00 | 59 | 1013.9 |
| 20260504110529 | 17 | 53 | 16.1 | 0.0 | 0.00 | 0.00 | 0.00 | 41 | 1013.3 |
| 20260504100537 | 17 | 326 | 14.5 | 0.0 | 0.00 | 0.00 | 0.00 | 40 | 1012.7 |
| 20260504081608 | 17 | 323 | 19.3 | 0.0 | 0.00 | 0.00 | 0.00 | 42 | 1012.0 |
| 20260504081051 | 17 | 323 | 20.9 | 0.0 | 0.00 | 0.00 | 0.00 | 41 | 1012.0 |
| 20260504080557 | 17 | 310 | 19.3 | 0.0 | 0.00 | 0.00 | 0.00 | 41 | 1011.9 |
| 20260504080104 | 17 | 336 | 20.9 | 0.0 | 0.00 | 0.00 | 0.00 | 43 | 1011.9 |